Retour au catalogue

TITAN 3A TRANSTAGE R/B

ActifMEO
NORAD 1001·ROCKET BODY·🇺🇸 United States

Lancé Feb 11, 1965 depuis Cape Canaveral Space Force Station

Loading…

Prochains Passages (prochaines 24 heures)

TLE

FraisSource: Space-Track

Époque: Sep 14, 2026, 00:30 UTC

1 01001U 65008A   26257.02090024  .00000005  00000-0 -42155-3 0  9996
2 01001  32.1437 256.0816 0016977 227.6953 132.2106  9.90721512230282

Suivez TITAN 3A TRANSTAGE R/B en temps réel avec AllMySat

Download on the App Store